{"data":{"norad_id":68315,"intl_designator":"2026-057X","name":"STARLINK-37150","alt_names":[],"object_type":"PAYLOAD","status":"ACTIVE","operator":null,"country":"US","launch_date":"2026-03-20","launch_site_code":"AFWTR","launch_vehicle":null,"mission":null,"orbit_class":"UNKNOWN","rcs_meters":null,"size_class":null,"mass_kg":null,"dimensions":null,"purposes":["comms"],"wikipedia_slug":null,"has_3d_model":false,"image_url":null,"decayed_at":null,"tle_current":{"epoch":"2026-09-19T02:32:37.166208Z","epoch_age_seconds":168903,"freshness":"FRESH","line1":"1 68315U 26057X   26262.10598572  .00020869  00000+0  64679-3 0  9997","line2":"2 68315  97.2851  27.5785 0000129 103.3511 256.7746 15.33453949 28303","mean_motion":15.33453949,"eccentricity":1.29e-5,"inclination_deg":97.2851,"raan_deg":27.5785,"arg_perigee_deg":103.3511,"mean_anomaly_deg":256.7746,"bstar":0.00064679,"rev_number":2830,"period_min":93.905656634753,"perigee_km":465.428265549,"apogee_km":465.60483181055,"semimajor_km":6843.6535486798,"source":"CELESTRAK","updated_at":"2026-09-20T09:00:43.881150Z"}}}